{"data":{"norad_id":89172,"epoch":"2026-09-15T10:38:42.784800Z","epoch_age_seconds":454371,"freshness":"STALE","line1":"1 89172U          26258.44355075  .00008705  00000+0  13053-2 0  9996","line2":"2 89172  82.0622 320.8979 0274842 144.9573 217.0059 14.52016713641989","mean_motion":14.52016713,"eccentricity":0.0274842,"inclination_deg":82.0622,"raan_deg":320.8979,"arg_perigee_deg":144.9573,"mean_anomaly_deg":217.0059,"bstar":0.0013053,"rev_number":64198,"period_min":99.172412211759,"perigee_km":524.00829117073,"apogee_km":914.13036756598,"semimajor_km":7097.2063293684,"source":"CELESTRAK","updated_at":"2026-09-20T09:00:32.483002Z"}}